OpenBCM V1.13 (Linux)

Packet Radio Mailbox

DB0FHN

[JN59NK Nuernberg]

 Login: GUEST





  
I6KZR  > KEPLER   22.01.03 21:57l 1460 Lines 39192 Bytes #999 (0) @ WW
BID : 19873_IK6WID
Read: DB0FHN GUEST
Subj: Old Istantrak Keplerians #022
Path: DB0FHN<DB0RGB<OK0PPL<RZ6HXA<SP7MGD<IK6PYS<I6ZLO<IK6WID
Sent: 030122/1935Z @:IK6WID.#AP.IMAR.ITA.EU #:19873 [MONTE URANO]  FBB7.00i
From: I6KZR@IK6WID.#AP.IMAR.ITA.EU
To  : KEPLER@WW


Satellite: OSCAR 7
Catalog number: 07530
Epoch time:      103021.67955580
Element set:     167 
Inclination:      101.7672 deg
RA of node:        69.7230 deg
Eccentricity:    0.0012533
Arg of perigee:   132.3794 deg
Mean anomaly:     227.8339 deg
Mean motion:   12.53563767 rev/day
Decay rate:   -2.9000E-007 rev/day^2
Epoch rev:           28969
Checksum:              321

Satellite: GOES 2
Catalog number: 10061
Epoch time:      103019.51073537
Element set:     61 
Inclination:       14.1247 deg
RA of node:        13.6744 deg
Eccentricity:    0.0013638
Arg of perigee:   197.1605 deg
Mean anomaly:     162.8376 deg
Mean motion:    0.99393429 rev/day
Decay rate:    5.2000E-007 rev/day^2
Epoch rev:            3853
Checksum:              277

Satellite: GOES 3
Catalog number: 10953
Epoch time:      103021.01524253
Element set:     899 
Inclination:       13.3967 deg
RA of node:        17.4505 deg
Eccentricity:    0.0004633
Arg of perigee:   337.6378 deg
Mean anomaly:      22.3933 deg
Mean motion:    1.00278343 rev/day
Decay rate:   -8.9000E-007 rev/day^2
Epoch rev:            4321
Checksum:              273

Satellite: GOES 6
Catalog number: 14050
Epoch time:      103016.14732176
Element set:     414 
Inclination:       10.3570 deg
RA of node:        35.6987 deg
Eccentricity:    0.0003031
Arg of perigee:   351.7582 deg
Mean anomaly:       8.3301 deg
Mean motion:    1.00292235 rev/day
Decay rate:    6.7000E-007 rev/day^2
Epoch rev:           13030
Checksum:              233

Satellite: OSCAR 10
Catalog number: 14129
Epoch time:      103016.86512512
Element set:     913 
Inclination:       25.8801 deg
RA of node:       169.7238 deg
Eccentricity:    0.6040971
Arg of perigee:   319.7878 deg
Mean anomaly:       8.2813 deg
Mean motion:    2.05866445 rev/day
Decay rate:    1.3999E-007 rev/day^2
Epoch rev:           11939
Checksum:              408

Satellite: OSCAR 11 (UoSA
Catalog number: 14781
Epoch time:      103021.92113160
Element set:     54 
Inclination:       98.1136 deg
RA of node:       355.6423 deg
Eccentricity:    0.0008598
Arg of perigee:   306.3919 deg
Mean anomaly:      53.6494 deg
Mean motion:   14.77913985 rev/day
Decay rate:    2.0569E-005 rev/day^2
Epoch rev:            1215
Checksum:              416

Satellite: NOAA 10
Catalog number: 16969
Epoch time:      103021.92344310
Element set:     642 
Inclination:       98.7264 deg
RA of node:        16.0950 deg
Eccentricity:    0.0012583
Arg of perigee:   163.7716 deg
Mean anomaly:     196.3869 deg
Mean motion:   14.27053484 rev/day
Decay rate:    2.5100E-006 rev/day^2
Epoch rev:           84996
Checksum:              321

Satellite: GOES 7
Catalog number: 17561
Epoch time:      103013.52827387
Element set:     810 
Inclination:        7.5470 deg
RA of node:        55.7264 deg
Eccentricity:    0.0004064
Arg of perigee:   288.6625 deg
Mean anomaly:     149.4031 deg
Mean motion:    1.00317770 rev/day
Decay rate:    1.1600E-006 rev/day^2
Epoch rev:            4138
Checksum:              275

Satellite: COSMOS 1861
Catalog number: 18129
Epoch time:      103021.88535986
Element set:     217 
Inclination:       82.9250 deg
RA of node:       167.0236 deg
Eccentricity:    0.0010980
Arg of perigee:   311.0635 deg
Mean anomaly:      48.9568 deg
Mean motion:   13.72698113 rev/day
Decay rate:    7.9000E-007 rev/day^2
Epoch rev:           78071
Checksum:              328

Satellite: EUTELSAT 1-F4 
Catalog number: 18351
Epoch time:      103016.60000000
Element set:     28 
Inclination:        7.0610 deg
RA of node:        58.7710 deg
Eccentricity:    0.0010065
Arg of perigee:   125.6900 deg
Mean anomaly:     263.2870 deg
Mean motion:    0.98688648 rev/day
Decay rate:   -1.3400E-006 rev/day^2
Epoch rev:            4235
Checksum:              253

Satellite: NOAA 11
Catalog number: 19531
Epoch time:      103021.92537139
Element set:     475 
Inclination:       98.9051 deg
RA of node:       103.3946 deg
Eccentricity:    0.0010922
Arg of perigee:   282.1255 deg
Mean anomaly:      77.8693 deg
Mean motion:   14.14524452 rev/day
Decay rate:    2.5199E-006 rev/day^2
Epoch rev:           73889
Checksum:              326

Satellite: ASTRA 1A
Catalog number: 19688
Epoch time:      103019.87686910
Element set:     559 
Inclination:        1.3135 deg
RA of node:        95.4233 deg
Eccentricity:    0.0004167
Arg of perigee:   190.0317 deg
Mean anomaly:     154.2617 deg
Mean motion:    1.00272000 rev/day
Decay rate:    4.3000E-007 rev/day^2
Epoch rev:            3189
Checksum:              270

Satellite: OSCAR 14 (UOSA
Catalog number: 20437
Epoch time:      103022.16385950
Element set:     147 
Inclination:       98.2774 deg
RA of node:        67.0818 deg
Eccentricity:    0.0010058
Arg of perigee:   286.9835 deg
Mean anomaly:      73.0241 deg
Mean motion:   14.31228828 rev/day
Decay rate:    2.0899E-006 rev/day^2
Epoch rev:           67857
Checksum:              333

Satellite: OSCAR 15 (UOSA
Catalog number: 20438
Epoch time:      103022.09358875
Element set:     764 
Inclination:       98.2519 deg
RA of node:        56.2587 deg
Eccentricity:    0.0009334
Arg of perigee:   299.9372 deg
Mean anomaly:      60.0883 deg
Mean motion:   14.30190711 rev/day
Decay rate:    1.6899E-006 rev/day^2
Epoch rev:           67823
Checksum:              349

Satellite: OSCAR 16 (PACS
Catalog number: 20439
Epoch time:      103021.69395517
Element set:     843 
Inclination:       98.3226 deg
RA of node:        78.1539 deg
Eccentricity:    0.0010403
Arg of perigee:   295.4060 deg
Mean anomaly:      64.6053 deg
Mean motion:   14.31460713 rev/day
Decay rate:    2.3099E-006 rev/day^2
Epoch rev:           67854
Checksum:              309

Satellite: OSCAR 17 (DOVE
Catalog number: 20440
Epoch time:      103021.68827763
Element set:     731 
Inclination:       98.3407 deg
RA of node:        81.9764 deg
Eccentricity:    0.0010628
Arg of perigee:   294.5988 deg
Mean anomaly:      65.4084 deg
Mean motion:   14.31737825 rev/day
Decay rate:    2.7599E-006 rev/day^2
Epoch rev:           67861
Checksum:              352

Satellite: OSCAR 18 (WEBE
Catalog number: 20441
Epoch time:      103021.95593090
Element set:     995 
Inclination:       98.3393 deg
RA of node:        81.4624 deg
Eccentricity:    0.0010938
Arg of perigee:   293.7871 deg
Mean anomaly:      66.2166 deg
Mean motion:   14.31542897 rev/day
Decay rate:    2.4799E-006 rev/day^2
Epoch rev:           67863
Checksum:              353

Satellite: OSCAR 19 (LUSA
Catalog number: 20442
Epoch time:      103022.21704483
Element set:     945 
Inclination:       98.3533 deg
RA of node:        84.6890 deg
Eccentricity:    0.0011384
Arg of perigee:   292.5572 deg
Mean anomaly:      67.4403 deg
Mean motion:   14.31705632 rev/day
Decay rate:    2.4399E-006 rev/day^2
Epoch rev:           67872
Checksum:              318

Satellite: JAS 1B (FUJI 2
Catalog number: 20480
Epoch time:      103021.94887344
Element set:     475 
Inclination:       99.0414 deg
RA of node:       349.8933 deg
Eccentricity:    0.0540903
Arg of perigee:    66.3983 deg
Mean anomaly:     299.2945 deg
Mean motion:   12.83328883 rev/day
Decay rate:    2.3999E-007 rev/day^2
Epoch rev:           60697
Checksum:              457

Satellite: HST
Catalog number: 20580
Epoch time:      103021.97654544
Element set:     304 
Inclination:       28.4653 deg
RA of node:       217.3070 deg
Eccentricity:    0.0004036
Arg of perigee:   339.1015 deg
Mean anomaly:     147.0296 deg
Mean motion:   14.97704239 rev/day
Decay rate:    2.7509E-005 rev/day^2
Epoch rev:           49849
Checksum:              408

Satellite: EUTELSAT 2-F1
Catalog number: 20777
Epoch time:      103020.96616112
Element set:     18 
Inclination:        3.4336 deg
RA of node:        84.8234 deg
Eccentricity:    0.0000586
Arg of perigee:   213.7896 deg
Mean anomaly:     245.1756 deg
Mean motion:    1.00271346 rev/day
Decay rate:   -9.4000E-007 rev/day^2
Epoch rev:            2581
Checksum:              277

Satellite: FENGYUN 1B
Catalog number: 20788
Epoch time:      103022.20327536
Element set:     863 
Inclination:       99.0246 deg
RA of node:         4.6573 deg
Eccentricity:    0.0015229
Arg of perigee:   307.6888 deg
Mean anomaly:      52.2895 deg
Mean motion:   14.02139821 rev/day
Decay rate:   -1.1999E-007 rev/day^2
Epoch rev:           63370
Checksum:              318

Satellite: EUTELSAT 2-F2
Catalog number: 21056
Epoch time:      103018.98974700
Element set:     611 
Inclination:        2.6576 deg
RA of node:        88.1748 deg
Eccentricity:    0.0002556
Arg of perigee:   220.7869 deg
Mean anomaly:     213.8256 deg
Mean motion:    1.00277988 rev/day
Decay rate:    1.2900E-006 rev/day^2
Epoch rev:            3157
Checksum:              309

Satellite: INFORMATOR 1
Catalog number: 21087
Epoch time:      103021.97796035
Element set:     612 
Inclination:       82.9439 deg
RA of node:       337.8359 deg
Eccentricity:    0.0034864
Arg of perigee:   330.0485 deg
Mean anomaly:      29.8670 deg
Mean motion:   13.74923384 rev/day
Decay rate:    7.4000E-007 rev/day^2
Epoch rev:           60109
Checksum:              417

Satellite: COSMOS 2123
Catalog number: 21089
Epoch time:      103021.94959344
Element set:     495 
Inclination:       82.9210 deg
RA of node:       201.8647 deg
Eccentricity:    0.0030142
Arg of perigee:     6.0687 deg
Mean anomaly:     354.0832 deg
Mean motion:   13.74401477 rev/day
Decay rate:    9.6999E-007 rev/day^2
Epoch rev:           59999
Checksum:              445

